Location: Casilda
(33.0440°S, 61.1680°W)
Time: 18:12:42
(UTC-03:00)

ISS - Pass Details

Date: 23 January 2022
Orbit: 413 x 422 km, 51.6° (Epoch: 19 January)

Event Time Altitude Azimuth Distance (km) Brightness Sun altitude
Exits shadow 04:52:52 33° 349° (NNW) 744 -2.9 -16.4°
Maximum altitude 04:54:05 52° 47° (NE) 536 -3.2 -16.2°
Drops below altitude 10° 04:57:27 10° 124° (SE) 1,533 0.5 -15.6°
Sets 04:59:36 0° 129° (SE) 2,406 2.0 -15.3°
